Aeroporto :
LOGIN :

Iscrizione | Disclaimer

   EN    FR    IT 

 










Sommario :    VFR   VFR Marginale   IFR   IFR Intensivo   IFR Molto Intensivo
Visibilità : 
Base nubi : 
>= 8 km
>= 3000ft
5 / 8 km
1000 / 3000 ft
1500m / 5 km
500 / 1000 ft
800 / 1500m
200 / 500 ft
< 800m
< 200 ft
Simboli :   Temporali  Nebbia  Neve Forte  Precipitazioni Forti  Vento > 20 kt
SIGMETs :   Varie  Temporali  Ghiacco  Turbolenza  Onda orograficha  Ceneri Vulcaniche







- Altitudine del aeroporto : 1548 ft


LKNA - Náměšť Air Base

ULTIMO METAR :
  • 261500Z 26008KT 220V280 9999 FEW047 BKN050 21/11 Q1014 NOSIG RMK BLU BLU

METARs OBSOLETI :
  • 261400Z 22008KT 9999 FEW049 BKN080 22/10 Q1014 NOSIG RMK BLU BLU
  • 261300Z 25007KT 200V290 9999 FEW047 BKN070 BKN100 21/09 Q1014 NOSIG RMK BLU BLU

TAF TAF LKNA
Valido dal 26 a 12 ore il 27 a 12 ore UTC


261100Z 2612/2712 VRB02KT CAVOK
TEMPO 2612/2618 28014KT 7000 SHRA SCT040TCU
Nessun NOTAM noto per questo aeroporto.



MetMap, La meteo Aeronautica in un colpo d'occhio ! - Copyright ORBIFLY Dicembre 2007 - Disclaimer

ORBIFLY MET'MAP TEAM :

Programmazione e sviluppo : Alexandra Zaïnal
Concezione e sviluppo : Baudouin d'Aumeries
Co-Programmazione e sviluppo : Marc-Olivier Méhu
Supporto tecnico e logistico : Manuel Goepfert
Aiuto per la traduzione : Arnaldo La Scala

Contatto : metmap@orbifly.com




FONTI E CREDITI :

   NOAA